Вернуться в каталог

STARLINK-31625

АктивенСвязьVLEO
NORAD 59458·PAYLOAD·🇺🇸 United States

Запущен Apr 10, 2024 с Cape Canaveral Space Force Station

Loading…

Ближайшие Пролёты (ближайшие 24 часа)

TLE

СвежийSource: CelesTrak SupGP

Эпоха: Sep 14, 2026, 21:43 UTC

1 59458C 24068D   26257.90534722  .00056023  00000+0  20291-2 0  2573
2 59458  43.0042  46.0078 0001492 272.0900 312.9767 15.27551881    16

Отслеживайте STARLINK-31625 в реальном времени с AllMySat

Download on the App Store